Regional Weather Roundup
Issued by NWS

Home | Current Version | Previous Version | Graphics & Text | Print | Product List | Glossary On
Versions: 1 2 3 4 5 6 7 8 9 10 11 12 13 14 15 16 17 18 19 20 21 22 23 24 25 26 27 28 29 30 31 32 33 34 35 36 37 38 39 40 41 42 43 44 45 46 47 48 49 50
000
ASUS43 KMPX 262110
RWRMN
WEATHER ROUNDUP FOR MINNESOTA
NATIONAL WEATHER SERVICE TWIN CITIES/CHANHASSEN MN
400 PM CDT THU MAR 26 2015


NOTE: "FAIR" INDICATES FEW OR NO CLOUDS BELOW 12,000 FEET WITH NO
SIGNIFICANT WEATHER AND/OR OBSTRUCTIONS TO VISIBILITY. N/A MEANS
CURRENT SKY AND/OR WEATHER CONDITIONS ARE NOT AVAILABLE.

MNZ060>063-068>070-262200-
   Twin Cities Metro

CITY           SKY/WX    TMP DP  RH WIND       PRES   REMARKS
TWIN CITIES    CLOUDY    35  16  45 NW20G25   30.10S WCI  24
ST PAUL        CLOUDY    35  14  42 NW14      30.11S WCI  26
CRYSTAL        CLOUDY    36  15  42 NW15      30.09F
BLAINE         PTSUNNY   36  16  44 NW15      30.09F
LAKEVILLE      CLOUDY    32  19  59 NW14      30.09S WCI  22
EDEN PRAIRIE   CLOUDY    33  18  53 N16       30.09F WCI  23
SOUTH ST PAUL  CLOUDY    36  15  43 N12       30.10S
LAKE ELMO      CLOUDY    36  18  48 N12G22    30.09S
$$
MNZ001>005-007-008-013>017-022>024-027-028-262200-
   Northwest Minnesota

CITY           SKY/WX    TMP DP  RH WIND       PRES   REMARKS
BEMIDJI        SUNNY     29   1  30 N14G20    30.17S WCI  18
HALLOCK        MOSUNNY   30  12  47 N16G22    30.28F WCI  19
ROSEAU         SUNNY     28  10  47 NW13      30.24S WCI  18
WARROAD        SUNNY     25  10  54 E8        30.24S WCI  16
THIEF RVR FALL PTSUNNY   28  14  54 N14G22    30.24F WCI  17
CROOKSTON      MOSUNNY   30  16  55 N16       30.27S WCI  19
FOSSTON        MOSUNNY   30  12  47 N14G23    30.22S WCI  20
DETROIT LAKES  MOSUNNY   30  16  55 N15G26    30.19S WCI  19
MOORHEAD       MOSUNNY   34   5  29 N16G26    30.23F WCI  23
PARK RAPIDS    SUNNY     31   3  30 N15       30.14S WCI  20
MAHNOMEN       MOCLDY    28  13  51 N17       30.21S WCI  16
$$
MNZ006-009>011-018-025>026-262200-
   North Central Minnesota

CITY           SKY/WX    TMP DP  RH WIND       PRES   REMARKS
BAUDETTE       SUNNY     24   5  44 NW16      30.21S WCI  11
FLAG ISLAND    SUNNY     23   1  39 NW14      30.23S WCI  11
INTL FALLS     SUNNY     26   3  37 N9        30.17S WCI  17
WASKISH        SUNNY     27   9  46 NW14      30.20S WCI  15
BIG FORK       SUNNY     30   3  31 N9        30.14S WCI  22
LONGVILLE      MOSUNNY   30   5  34 N9G17     30.13S WCI  22
GRAND RAPIDS   SUNNY     28   5  37 NW15G25   30.12S WCI  17
CRANE LAKE     SUNNY     25   1  36 NW15      30.17S WCI  12
ORR            SUNNY     27  -2  28 NW10G18   30.12S WCI  17
COOK           SUNNY     27   1  33 N9G22     30.13S WCI  17
WALKER         FAIR      29  -2  26 NW6G18    30.15S WCI  22
$$
MNZ012-019>021-037-262200-
   Northeast Minnesota

CITY           SKY/WX    TMP DP  RH WIND       PRES   REMARKS
DULUTH         MOSUNNY   29   4  34 N15G22    30.08S WCI  18
ELY            SUNNY     25   0  33 NW12G20   30.09S WCI  14
HIBBING        SUNNY     29   2  31 N15G23    30.11S WCI  18
EVELETH        SUNNY     28   5  37 NW14G22   30.11S WCI  17
DULUTH HARBOR  SUNNY     32   5  32 NW12      30.13S WCI  23
TWO HARBORS    SUNNY     32   9  37 N6        30.08S WCI  26
SILVER BAY     SUNNY     30   3  31 NW6       30.07F WCI  24
GRAND MARAIS     N/A     29   5  36 N12       30.11S WCI  19
G MARAIS ARPRT SUNNY     19   1  45 NW15G22   30.03S WCI   5
$$
MNZ029>031-032-039>041-046>048-054>057-064-262200-
   West Central Minnesota

CITY           SKY/WX    TMP DP  RH WIND       PRES   REMARKS
FERGUS FALLS   SUNNY     32   7  34 NE15      30.21S WCI  22
WHEATON        SUNNY     34  12  40 N13G25    30.21F WCI  25
MORRIS         CLOUDY    30  19  64 N18G24    30.16F WCI  18
ALEXANDRIA     CLOUDY    30  15  53 NW12      30.15S WCI  20
ELBOW LAKE     FAIR      31  12  44 N15G26    30.16F WCI  21
WADENA         SUNNY     30  10  43 N14G21    30.14S WCI  20
GLENWOOD       CLOUDY    28  18  64 NW12G18   30.15S WCI  18
APPLETON       PTSUNNY   34  18  51 N20G26    30.18F WCI  22
BENSON         CLOUDY    30  18  59 N16       30.17F WCI  19
ORTONVILLE     MOSUNNY   32  18  55 NW18G25   30.18F WCI  20
MADISON        CLOUDY    34  18  51 N17       30.18S WCI  23
WILLMAR        FAIR      30  19  64 N14       30.16S WCI  20
$$
MNZ033>034-036-042>043-049>051-058-059-262200-
   Central Minnesota

CITY           SKY/WX    TMP DP  RH WIND       PRES   REMARKS
ST CLOUD       CLOUDY    32  13  45 N12       30.12F WCI  23
SAUK CENTRE    CLOUDY    29  15  54 N13G18    30.15S WCI  19
PAYNESVILLE    CLOUDY    27  17  66 NW13G20   30.14F WCI  16
AITKIN         MOSUNNY   36   3  25 N12G17    30.10S
PINE RIVER     SUNNY     30   9  40 N15G23    30.16S WCI  19
BRAINERD       SUNNY     31   7  36 N13G24    30.13F WCI  21
STAPLES        SUNNY     34   7  32 N18       30.12F WCI  23
LONG PRAIRIE   FAIR      30  14  51 NW8G16    30.13F WCI  23
LITTLE FALLS   MOSUNNY   32   9  37 NW8       30.12S WCI  25
LITCHFIELD     CLOUDY    30  21  69 NW12      30.14R WCI  21
BUFFALO        CLOUDY    32  18  55 N13G18    30.13S WCI  22
MAPLE LAKE     CLOUDY    33  20  59 N10       30.13S WCI  24
$$
MNZ037-044-045-052-053-262200-
   East Central Minnesota

CITY           SKY/WX    TMP DP  RH WIND       PRES   REMARKS
PRINCETON      CLOUDY    34  12  40 N14G20    30.12R WCI  24
MORA           MOSUNNY   34  12  40 NW13G20   30.11F WCI  25
CAMBRIDGE      MOSUNNY   36  18  48 NW13G22   30.09S
RUSH CITY      MOSUNNY   34   7  32 N13G21    30.10S WCI  25
MOOSE LAKE     SUNNY     32   5  32 N13G24    30.09S WCI  22
HINCKLEY       FAIR      32   9  37 NW9G22    30.10S WCI  24
CLOQUET        SUNNY     30   0  27 N15G23    30.09S WCI  19
MCGREGOR       SUNNY     32   7  34 NW12G21   30.11F WCI  23
$$
MNZ071>073-080-081-089-090-097-098-262200-
   Southwest Minnesota

CITY           SKY/WX    TMP DP  RH WIND       PRES   REMARKS
MONTEVIDEO     CLOUDY    32  21  64 N16G24    30.18S WCI  21
GRANITE FALLS  CLOUDY    32  20  60 NW15G21   30.18S WCI  22
CANBY          CLOUDY    33  18  53 N17       30.18S WCI  23
MARSHALL       CLOUDY    34  16  47 N20G26    30.16S WCI  22
REDWOOD FALLS  CLOUDY    33  20  58 N9G20     30.15S WCI  25
OLIVIA         CLOUDY    30  21  69 N15       30.14S WCI  19
PIPESTONE      CLOUDY    36  19  51 N13G20    30.12S
WINDOM         CLOUDY    34  21  60 NW18      30.12F WCI  23
WORTHINGTON    PTSUNNY   36  19  51 N16G23    30.12F
JACKSON        CLOUDY    36  21  55 NW17G25   30.11S
TRACY          CLOUDY    34  21  58 N15       30.14F WCI  24
SLAYTON        CLOUDY    33  18  53 N16       30.13S WCI  23
$$
MNZ065>067-074>077-082>085-091>093-262200-
   South Central Minnesota

CITY           SKY/WX    TMP DP  RH WIND       PRES   REMARKS
MANKATO        CLOUDY    32  18  55 NW13G24   30.12S WCI  22
NEW ULM        CLOUDY    32  19  59 NW21      30.12S WCI  20
ST JAMES       CLOUDY    36  23  60 NW21      30.13F
FAIRMONT       CLOUDY    36  19  51 NW18      30.10S
GLENCOE        CLOUDY    33  22  65 NW15      30.12S WCI  23
FARIBAULT      CLOUDY    34  19  55 NW10      30.10S WCI  26
OWATONNA       CLOUDY    32  21  64 NW16      30.10S WCI  21
WASECA         CLOUDY    32  23  69 NW16      30.12S WCI  21
ALBERT LEA     MOSUNNY   34  23  64 NW14      30.09S WCI  24
$$
MNZ078>079-086>088-094>096-262200-
   Southeast Minnesota

CITY           SKY/WX    TMP DP  RH WIND       PRES   REMARKS
ROCHESTER      CLOUDY    31  21  66 NW16      30.07S WCI  20
RED WING       CLOUDY    36  16  44 N7G16     30.08S
STANTON        PTSUNNY   35  21  57 NW15      30.08S WCI  25
DODGE CENTER   CLOUDY    32  19  59 NW15      30.07F WCI  22
WINONA         CLOUDY    36  21  55 NW17      30.07S
AUSTIN         CLOUDY    30  19  64 NW14G22   30.08F WCI  20
PRESTON        CLOUDY    31  20  62 NW15      30.06F WCI  20
$$
ABBREVIATIONS USED IN REMARKS
   TC - TEMPERATURES IN CELSIUS
  WCI - WIND CHILL INDEX
   HX - HEAT INDEX
  VSB - VISIBILITY
$$


USA.gov is the U.S. government's official web portal to all federal, state and local government web resources and services.